Home > Weather > Bamako > Past weeks

Flag for Mali Weather for the Past 2 Weeks in Bamako, Mali

Now
99 °F

Thunderstorms. Scattered clouds.


Feels Like: 99 °F
Forecast: N/A
Wind: 9 mph from North

Location: Bamako / Senou

Current Time: May 1, 2016 at 6:02:56 PM

Latest Report: May 1, 2016 at 5:30 PM


Visibility: N/A

Pressure: 29.74 "Hg

Humidity: 29%

Dew Point: 61 °F

Location of BamakoLocation

Historic Weather in Bamako — Graph

°F

Bamako Temperature Yesterday

Maximum temperature yesterday: 106 °F (at 1:30 PM)
Minimum temperature yesterday: 81 °F (at 3:00 AM)
Average temperature yesterday: 94 °F

High & Low Weather Summary for the Past Weeks

 TemperatureHumidityPressure
High108 °F (Apr 18, 2:30 PM)94% (Apr 27, 5:00 AM)32.84 "Hg (Apr 27, 5:00 AM)
Low72 °F (Apr 24, 10:00 PM)8% (Apr 16, 5:30 PM)29.71 "Hg (Apr 25, 4:30 PM)
Average93 °F32%29.86 "Hg
* Reported Apr 16 5:00 PM — May 1 5:00 PM, Bamako, Weather by CustomWeather, © 2016

Note: Actual official high and low records may vary slightly from our data, if they occured in-between our weather recording intervals... More about our weather records

Advertising

Bamako Weather History for the Previous 24 Hours

Scroll right to see more
 ConditionsComfort  
Time TempWeatherWind HumidityBarometerVisibility
5:00 PM
Sun, May 1
97 °FThunderstorms. Scattered clouds.14 mph30%29.74 "HgN/A
4:00 PM104 °FPassing clouds.5 mph21%29.74 "HgN/A
3:30 PM106 °FPassing clouds.8 mph20%29.74 "HgN/A
3:00 PM106 °FPassing clouds.5 mph20%29.77 "HgN/A
2:30 PM106 °FPassing clouds.10 mph20%29.77 "HgN/A
2:00 PM106 °FPassing clouds.8 mph20%29.80 "HgN/A
1:00 PM104 °FPassing clouds.7 mph23%29.83 "HgN/A
12:30 PM104 °FPassing clouds.7 mph23%29.83 "HgN/A
12:00 PM102 °FPassing clouds.7 mph23%29.83 "HgN/A
11:30 AM102 °FPassing clouds.8 mph26%29.86 "HgN/A
11:00 AM100 °FPassing clouds.8 mph27%29.86 "HgN/A
10:30 AM99 °FPassing clouds.9 mph31%29.86 "HgN/A
10:00 AM99 °FPassing clouds.8 mph33%29.86 "HgN/A
9:30 AM95 °FPassing clouds.8 mph36%29.86 "HgN/A
9:00 AM93 °FSunny.8 mph41%29.86 "Hg10 mi
8:30 AM91 °FSunny.8 mph44%29.86 "Hg10 mi
8:00 AM90 °FPassing clouds.6 mph46%29.86 "HgN/A
7:00 AM86 °FSunny.3 mph55%29.83 "Hg10 mi
6:30 AM84 °FSunny.5 mph58%29.83 "Hg10 mi
6:00 AM81 °FClear.1 mph70%29.83 "Hg10 mi
5:30 AM82 °FPassing clouds.1 mph58%29.83 "HgN/A
4:30 AM82 °FPassing clouds.2 mph58%29.80 "HgN/A
4:00 AM82 °FPassing clouds.3 mph58%29.80 "HgN/A
3:30 AM82 °FPassing clouds.1 mph62%29.80 "HgN/A
2:30 AM84 °FPassing clouds.No wind58%29.80 "HgN/A
2:00 AM88 °FPassing clouds.2 mph49%29.80 "HgN/A
1:30 AM88 °FPassing clouds.1 mph49%29.80 "HgN/A
12:00 AM90 °FPassing clouds.3 mph43%29.83 "HgN/A
11:30 PM
Sat, Apr 30
90 °FThunderstorms. Passing clouds.3 mph43%29.83 "HgN/A
11:00 PM90 °FThunderstorms. Passing clouds.1 mph43%29.83 "HgN/A
10:30 PM90 °FThunderstorms. Passing clouds.5 mph41%29.83 "HgN/A
10:00 PM91 °FThunderstorms. Passing clouds.5 mph38%29.83 "HgN/A
9:00 PM95 °FThunderstorms. Passing clouds.3 mph32%29.83 "HgN/A
8:30 PM93 °FThunderstorms. Passing clouds.7 mph36%29.80 "HgN/A
8:00 PM95 °FThunderstorms. Passing clouds.5 mph34%29.80 "HgN/A
7:30 PM95 °FThunderstorms. Passing clouds.5 mph32%29.80 "HgN/A
7:00 PM95 °FPassing clouds.9 mph30%29.77 "HgN/A
6:30 PM95 °FScattered clouds.7 mph28%29.77 "HgN/A
6:00 PM97 °FScattered clouds.9 mph27%29.77 "HgN/A
Weather by CustomWeather, © 2016

See weather overviewHow to use our weather pages